LDA170 LMML-LIRN

Flight info

Callsign LDA170
Flight time 0h 52m
Altitude 36000
Route GZO3A GZO P623 OLLEK DCT ARFOL DCT ROMSU DCT UXUTA DCT DIRED DCT NAXES/N0371F180 T92 SOR SOR1A
Aircraft A320/M-SDE2E3FGHIJ1RWXY/5566

Departure

Time 2026-04-29 17:36
Airport Malta International Airport (LMML)

Arrival

Time 2026-04-29 18:28
Airport Naples International Airport (LIRN)
Time Latitude Longitude Altitude Speed Heading
2026-04-29 17:23 35.84960 14.49338 254 ft 0 kts
2026-04-29 17:28 35.84942 14.49338 254 ft 3 kts
2026-04-29 17:28 35.84924 14.49338 254 ft 3 kts 358°
2026-04-29 17:29 35.84905 14.49345 254 ft 3 kts 314°
2026-04-29 17:29 35.84898 14.49356 254 ft 0 kts 301°
2026-04-29 17:31 35.84916 14.49317 254 ft 10 kts 298°
2026-04-29 17:31 35.84920 14.49203 255 ft 19 kts 255°
2026-04-29 17:31 35.84953 14.49017 256 ft 28 kts 298°
2026-04-29 17:32 35.85028 14.48760 258 ft 36 kts 290°
2026-04-29 17:32 35.85172 14.48471 261 ft 44 kts 318°
2026-04-29 17:32 35.85413 14.48188 262 ft 52 kts 317°
2026-04-29 17:32 35.85684 14.47853 264 ft 51 kts 314°
2026-04-29 17:33 35.85694 14.47638 268 ft 23 kts 233°
2026-04-29 17:33 35.85659 14.47452 269 ft 23 kts 269°
2026-04-29 17:33 35.85641 14.47230 272 ft 30 kts 245°
2026-04-29 17:33 35.85503 14.47004 278 ft 36 kts 234°
2026-04-29 17:34 35.85336 14.46721 285 ft 47 kts 235°
2026-04-29 17:34 35.85121 14.46350 293 ft 59 kts 233°
2026-04-29 17:34 35.84911 14.45996 303 ft 30 kts 225°
2026-04-29 17:34 35.84779 14.46024 306 ft 14 kts 109°
2026-04-29 17:35 35.84808 14.46120 304 ft 1 kts 54°
2026-04-29 17:35 35.84947 14.46364 297 ft 70 kts 54°
2026-04-29 17:35 35.85369 14.47095 294 ft 137 kts 59°
2026-04-29 17:36 35.85992 14.48062 938 ft 152 kts 56°
2026-04-29 17:36 35.86658 14.49172 1531 ft 166 kts 61°
2026-04-29 17:36 35.87308 14.50384 2306 ft 172 kts 62°
2026-04-29 17:36 35.87975 14.51638 3072 ft 177 kts 62°
2026-04-29 17:37 35.88674 14.52911 3772 ft 183 kts 61°
2026-04-29 17:37 35.89396 14.54216 4446 ft 190 kts 59°
2026-04-29 17:37 35.90368 14.55371 5090 ft 204 kts 29°
2026-04-29 17:37 35.91797 14.55656 5726 ft 215 kts 358°
2026-04-29 17:38 35.93306 14.55499 6371 ft 221 kts 354°
2026-04-29 17:38 35.94857 14.55319 7007 ft 226 kts 354°
2026-04-29 17:38 35.96471 14.55183 7352 ft 251 kts 356°
2026-04-29 17:38 35.98365 14.55102 7484 ft 288 kts 358°
2026-04-29 17:39 36.00392 14.55115 8393 ft 291 kts 359°
2026-04-29 17:39 36.02420 14.55191 9431 ft 292 kts 359°
2026-04-29 17:39 36.04457 14.55298 10341 ft 296 kts
2026-04-29 17:39 36.06589 14.55424 10772 ft 317 kts
2026-04-29 17:40 36.08830 14.55564 11187 ft 336 kts
2026-04-29 17:40 36.11225 14.55725 11640 ft 353 kts
2026-04-29 17:40 36.13735 14.55900 12108 ft 369 kts
2026-04-29 17:40 36.16346 14.56089 12605 ft 382 kts
2026-04-29 17:41 36.19016 14.56290 13417 ft 385 kts
2026-04-29 17:41 36.21705 14.56498 14189 ft 388 kts
2026-04-29 17:41 36.24411 14.56709 14891 ft 392 kts
2026-04-29 17:41 36.27148 14.56920 15570 ft 396 kts
2026-04-29 17:42 36.29916 14.57133 16245 ft 399 kts
2026-04-29 17:42 36.32705 14.57346 16920 ft 403 kts
2026-04-29 17:42 36.35486 14.57557 17570 ft 406 kts 360°
2026-04-29 17:42 36.38324 14.57773 18213 ft 410 kts 360°
2026-04-29 17:43 36.41185 14.57990 18773 ft 414 kts 360°
2026-04-29 17:43 36.44071 14.58209 19310 ft 417 kts 360°
2026-04-29 17:43 36.46981 14.58430 19839 ft 421 kts 360°
2026-04-29 17:43 36.48926 14.58597 20188 ft 424 kts
2026-04-29 17:44 36.51869 14.59061 20702 ft 429 kts
2026-04-29 17:44 36.54826 14.59662 21204 ft 433 kts
2026-04-29 17:44 36.57803 14.60326 21709 ft 436 kts
2026-04-29 17:44 36.60801 14.61022 22214 ft 440 kts
2026-04-29 17:45 36.63815 14.61735 22693 ft 443 kts
2026-04-29 17:45 36.66855 14.62458 23181 ft 446 kts
2026-04-29 17:45 36.69921 14.63188 23646 ft 449 kts
2026-04-29 17:45 36.72997 14.63919 24036 ft 452 kts
2026-04-29 17:46 36.76097 14.64655 24412 ft 455 kts
2026-04-29 17:46 36.79214 14.65392 24792 ft 457 kts
2026-04-29 17:46 36.82355 14.66121 25172 ft 460 kts
2026-04-29 17:46 36.85511 14.66846 25531 ft 463 kts
2026-04-29 17:47 36.88699 14.67573 25903 ft 465 kts
2026-04-29 17:47 36.91849 14.68290 26265 ft 468 kts
2026-04-29 17:47 36.95057 14.69020 26676 ft 469 kts
2026-04-29 17:47 36.98268 14.69753 27191 ft 468 kts
2026-04-29 17:48 37.01481 14.70489 27698 ft 467 kts
2026-04-29 17:48 37.04674 14.71221 28242 ft 465 kts
2026-04-29 17:48 37.07855 14.71950 28773 ft 464 kts
2026-04-29 17:48 37.11028 14.72677 29295 ft 463 kts
2026-04-29 17:49 37.14192 14.73401 29828 ft 462 kts
2026-04-29 17:49 37.17357 14.74118 30276 ft 460 kts
2026-04-29 17:49 37.20471 14.74786 30681 ft 457 kts 360°
2026-04-29 17:49 37.23612 14.74983 31106 ft 449 kts 353°
2026-04-29 17:50 37.26744 14.74918 31516 ft 447 kts 351°
2026-04-29 17:50 37.29845 14.74757 31928 ft 443 kts 350°
2026-04-29 17:50 37.32847 14.74565 32004 ft 422 kts 349°
2026-04-29 17:50 37.35724 14.74360 32015 ft 405 kts 349°
2026-04-29 17:51 37.38448 14.74152 32019 ft 389 kts 349°
2026-04-29 17:51 37.41093 14.73939 32012 ft 373 kts 348°
2026-04-29 17:51 37.43633 14.73727 32008 ft 359 kts 348°
2026-04-29 17:51 37.46079 14.73515 32008 ft 346 kts 348°
2026-04-29 17:52 37.48432 14.73306 32001 ft 333 kts 347°
2026-04-29 17:52 37.52870 14.72906 32003 ft 305 kts 347°
2026-04-29 17:52 37.54932 14.72720 32008 ft 288 kts 346°
2026-04-29 17:53 37.56903 14.72548 31996 ft 284 kts 346°
2026-04-29 17:53 37.58876 14.72384 32012 ft 283 kts 346°
2026-04-29 17:53 37.60840 14.72202 32014 ft 287 kts 345°
2026-04-29 17:53 37.62919 14.71943 31577 ft 315 kts 346°
2026-04-29 17:54 37.65164 14.71654 31407 ft 334 kts 347°
2026-04-29 17:54 37.67496 14.71390 31410 ft 347 kts 348°
2026-04-29 17:54 37.69960 14.71137 31404 ft 360 kts 348°
2026-04-29 17:54 37.72503 14.70890 31390 ft 372 kts 349°
2026-04-29 17:55 37.75128 14.70643 31390 ft 384 kts 349°
2026-04-29 17:55 37.77834 14.70392 31398 ft 396 kts 349°
2026-04-29 17:55 37.80630 14.70137 31408 ft 408 kts 350°
2026-04-29 17:55 37.83503 14.69877 31413 ft 419 kts 350°
2026-04-29 17:56 37.86444 14.69615 31486 ft 429 kts 351°
2026-04-29 17:56 37.92538 14.69054 31531 ft 448 kts 350°
2026-04-29 17:56 37.95666 14.68737 31783 ft 451 kts 350°
2026-04-29 17:57 37.98787 14.68420 32245 ft 449 kts 350°
2026-04-29 17:57 38.01854 14.68107 32658 ft 447 kts 349°
2026-04-29 17:57 38.04955 14.67792 33074 ft 446 kts 349°
2026-04-29 17:57 38.08040 14.67479 33495 ft 443 kts 349°
2026-04-29 17:58 38.11105 14.67165 33797 ft 437 kts 349°
2026-04-29 17:58 38.14124 14.66854 33939 ft 437 kts 349°
2026-04-29 17:58 38.17182 14.66530 33988 ft 444 kts 349°
2026-04-29 17:59 38.23459 14.65847 34006 ft 460 kts 349°
2026-04-29 17:59 38.29958 14.65140 34005 ft 476 kts 349°
2026-04-29 18:00 38.36550 14.64435 34006 ft 477 kts 350°
2026-04-29 18:00 38.43107 14.63750 34004 ft 470 kts 350°
2026-04-29 18:01 38.49647 14.63061 34013 ft 473 kts 350°
2026-04-29 18:01 38.56228 14.62362 34011 ft 474 kts 350°
2026-04-29 18:02 38.62802 14.61667 34018 ft 473 kts 350°
2026-04-29 18:02 38.69325 14.60974 34020 ft 474 kts 350°
2026-04-29 18:03 38.75907 14.60272 34017 ft 475 kts 350°
2026-04-29 18:03 38.82491 14.59570 34018 ft 474 kts 351°
2026-04-29 18:04 38.89061 14.58867 34019 ft 474 kts 351°
2026-04-29 18:04 38.95656 14.58160 34020 ft 475 kts 351°
2026-04-29 18:05 39.02192 14.57458 34015 ft 474 kts 351°
2026-04-29 18:05 39.08759 14.56753 34024 ft 473 kts 351°
2026-04-29 18:06 39.15334 14.56043 34032 ft 474 kts 351°
2026-04-29 18:06 39.21908 14.55331 34025 ft 473 kts 351°
2026-04-29 18:07 39.28477 14.54620 34026 ft 472 kts 351°
2026-04-29 18:07 39.34989 14.53913 34022 ft 473 kts 351°
2026-04-29 18:08 39.41572 14.53198 34023 ft 473 kts 351°
2026-04-29 18:08 39.48126 14.52485 34029 ft 472 kts 351°
2026-04-29 18:09 39.54676 14.51730 34026 ft 471 kts 349°
2026-04-29 18:09 39.61185 14.50728 34021 ft 471 kts 348°
2026-04-29 18:10 39.67643 14.49627 34025 ft 470 kts 348°
2026-04-29 18:10 39.74133 14.48487 34024 ft 469 kts 347°
2026-04-29 18:11 39.80617 14.47337 34023 ft 470 kts 347°
2026-04-29 18:11 39.87100 14.46185 34027 ft 471 kts 348°
2026-04-29 18:12 39.93592 14.45035 34025 ft 470 kts 347°
2026-04-29 18:12 40.00074 14.43889 34026 ft 470 kts 348°
2026-04-29 18:13 40.06510 14.42748 34025 ft 470 kts 348°
2026-04-29 18:13 40.12910 14.41714 33996 ft 448 kts 354°
2026-04-29 18:13 40.16001 14.42151 33286 ft 451 kts
2026-04-29 18:14 40.19026 14.43234 32527 ft 449 kts 12°
2026-04-29 18:14 40.21987 14.44441 31743 ft 442 kts 13°
2026-04-29 18:14 40.24896 14.45661 30774 ft 437 kts 14°
2026-04-29 18:14 40.27777 14.46868 29838 ft 431 kts 14°
2026-04-29 18:15 40.30611 14.48038 28837 ft 424 kts 13°
2026-04-29 18:15 40.33408 14.49172 27891 ft 417 kts 13°
2026-04-29 18:15 40.36167 14.50264 26965 ft 411 kts 13°
2026-04-29 18:15 40.38888 14.51316 26070 ft 404 kts 12°
2026-04-29 18:16 40.41562 14.52330 24958 ft 397 kts 12°
2026-04-29 18:16 40.44203 14.53313 23900 ft 391 kts 12°
2026-04-29 18:16 40.46800 14.54263 22751 ft 384 kts 12°
2026-04-29 18:16 40.49314 14.55169 21635 ft 377 kts 12°
2026-04-29 18:17 40.51823 14.56063 20544 ft 370 kts 12°
2026-04-29 18:17 40.54291 14.56936 19493 ft 364 kts 12°
2026-04-29 18:17 40.56722 14.57789 18367 ft 360 kts 12°
2026-04-29 18:17 40.59169 14.58641 16791 ft 365 kts 12°
2026-04-29 18:18 40.61626 14.59490 15285 ft 365 kts 12°
2026-04-29 18:18 40.64081 14.60339 13860 ft 364 kts 12°
2026-04-29 18:18 40.66521 14.61185 12294 ft 361 kts 13°
2026-04-29 18:18 40.68832 14.61989 10888 ft 358 kts 12°
2026-04-29 18:19 40.71237 14.62793 9438 ft 354 kts
2026-04-29 18:19 40.73602 14.62756 8665 ft 328 kts 348°
2026-04-29 18:19 40.75734 14.62129 8223 ft 302 kts 343°
2026-04-29 18:19 40.77761 14.61425 8006 ft 303 kts 343°
2026-04-29 18:20 40.79782 14.60725 8006 ft 301 kts 343°
2026-04-29 18:20 40.81825 14.60043 7911 ft 301 kts 342°
2026-04-29 18:20 40.83796 14.59173 7427 ft 298 kts 338°
2026-04-29 18:20 40.85769 14.58155 6264 ft 310 kts 336°
2026-04-29 18:21 40.87727 14.57094 5861 ft 294 kts 335°
2026-04-29 18:21 40.89589 14.56024 5134 ft 289 kts 333°
2026-04-29 18:21 40.91414 14.55005 4550 ft 291 kts 336°
2026-04-29 18:21 40.93294 14.54035 4214 ft 286 kts 337°
2026-04-29 18:22 40.95128 14.53066 4043 ft 283 kts 331°
2026-04-29 18:22 40.96611 14.51457 3876 ft 268 kts 308°
2026-04-29 18:22 40.97660 14.49379 3156 ft 266 kts 309°
2026-04-29 18:22 40.99050 14.48058 3201 ft 235 kts 341°
2026-04-29 18:23 41.00558 14.47644 3220 ft 207 kts 338°
2026-04-29 18:23 41.01573 14.46588 3217 ft 175 kts 297°
2026-04-29 18:23 41.01684 14.45070 3203 ft 171 kts 252°
2026-04-29 18:23 41.00908 14.43896 3211 ft 174 kts 209°
2026-04-29 18:24 40.99759 14.43387 3205 ft 175 kts 198°
2026-04-29 18:24 40.98585 14.42948 3190 ft 176 kts 199°
2026-04-29 18:24 40.97403 14.42467 3020 ft 175 kts 200°
2026-04-29 18:24 40.96327 14.41941 2882 ft 151 kts 202°
2026-04-29 18:25 40.95354 14.41607 2866 ft 140 kts 199°
2026-04-29 18:25 40.94475 14.40967 2462 ft 143 kts 221°
2026-04-29 18:25 40.93808 14.40038 2101 ft 138 kts 235°
2026-04-29 18:25 40.93287 14.39032 1937 ft 132 kts 239°
2026-04-29 18:26 40.92786 14.37961 1751 ft 139 kts 240°
2026-04-29 18:26 40.92283 14.36882 1538 ft 138 kts 240°
2026-04-29 18:26 40.91773 14.35797 1347 ft 139 kts 239°
2026-04-29 18:26 40.91266 14.34703 1143 ft 140 kts 238°
2026-04-29 18:27 40.90755 14.33617 951 ft 138 kts 236°
2026-04-29 18:27 40.90238 14.32536 728 ft 140 kts 236°
2026-04-29 18:27 40.89722 14.31458 504 ft 137 kts 236°
2026-04-29 18:27 40.89232 14.30424 389 ft 124 kts 236°
2026-04-29 18:28 40.88822 14.29548 326 ft 87 kts 239°
2026-04-29 18:28 40.88582 14.29058 327 ft 52 kts 237°
2026-04-29 18:28 40.88412 14.28697 329 ft 42 kts 238°
2026-04-29 18:28 40.88240 14.28440 325 ft 34 kts 214°
2026-04-29 18:29 40.88085 14.28311 324 ft 26 kts 229°
2026-04-29 18:29 40.88043 14.28189 327 ft 20 kts 240°
2026-04-29 18:29 40.87931 14.28068 326 ft 12 kts 223°
2026-04-29 18:29 40.87887 14.28000 327 ft 9 kts 230°
2026-04-29 18:30 40.87825 14.27928 325 ft 11 kts 215°
2026-04-29 18:30 40.87808 14.27870 326 ft 9 kts 265°
2026-04-29 18:30 40.87807 14.27841 328 ft 0 kts 267°